Zurück zum Katalog

KUIPER-00647

AktivKommunikationLEO
NORAD 69790·PAYLOAD·🇺🇸 United States

Gestartet Jul 2, 2026 von Cape Canaveral Space Force Station

Loading…

Nächste Überflüge (nächste 24 Stunden)

TLE

AktuellSource: CelesTrak SupGP

Epoche: Sep 14, 2026, 21:11 UTC

1 69790C 26151AD  26257.88304398  .00001306  00000+0  12894-3 0  2574
2 69790  51.8939 248.9445 0010751  44.2312 274.0560 14.91437226    18

Verfolge KUIPER-00647 in Echtzeit mit AllMySat

Download on the App Store